DELTA 2 R/B

Satellite information

Favourite Embed

Satellite Type and Status

ROCKET BODYIN ORBIT

Key statistics

Satellite DELTA 2 R/B at a glance.

Uptime

9114

Days in orbit

Revolutions

≈ 13.0

Per day

Orbit

SSO

Sun Synchronous Orbit

Inclination

95.4

Latest

Satellite identification and parameters

Extended collection of information and parameters for DELTA 2 R/B.

Object identification

Identified? True

Debris? False

Object name: DELTA 2 R/B

International designator: 2000-075D

Object number (NORAD): 26622

Object ID (CCSDS): 26622

Country: UNITED STATES OF AMERICA (US)

Current information (Y/N): Y

RCS size: LARGE

Orbital parameters

Period: 110.346 minutes

Inclination: 95.4247 deg

SMA: 7620.771 km

Apoapsis: 1788.985 km

Periapsis: 696.286 km

RAAN: 356.0977 deg

Eccentricy: 0.07169211

Argument of periapsis: 111.0302 deg

Mean anomaly: 322.0691 deg

Mean motion: 13.04981746 rev/day

Mean motion (dot): -0.00000524 rev/day2

B* drag term: -0.00045637737 1/REarth

Two-line elements (TLE)

Creation date: Nov. 2, 2025, 5:34 p.m.

Reference frame: TEME

Reference center: EARTH

Epoch: Nov. 2, 2025, 4:40 a.m. UTC

TLE line 0: 0 DELTA 2 R/B

TLE line 1: 1 26622U 00075D 25306.19480586 -.00000524 00000-0 -45638-3 0 9999

TLE line 2: 2 26622 95.4247 356.0977 0716921 111.0302 322.0691 13.04981746187666

Live tracking on map

Real-time ground track for satellite DELTA 2 R/B.

In-orbit conjunctions

A list of the most updated potential collisions computed for object DELTA 2 R/B.

Target Orbit TCA Probability of collision Miss distance Type
COSMOS 1867 COOLANT LEO 2025-04-27 16:25:29 0.0002439429 56.0 (m) DEBRIS
OAO 3 (COPERNICUS) LEO 2024-08-18 00:28:45 0.0001008877 266.0 (m) PAYLOAD

Associated space launch

EO 1 and SAS C are American and Argentinian Earth-imaging satellites.

DELTA 2 R/B was lifted into orbit during the mission ‘Delta II | EO 1 & SAC C’, on board a Delta II space rocket.

The launch took place on Nov. 21, 2000, 6:24 p.m. from Space Launch Complex 2W.

For more information about the launch, click the button.

Launch to space Delta II | EO 1 & SAC C
Delta II | EO 1 & SAC C

Agency: N/A

Status: Launch Successful

Launch date: Nov. 21, 2000, 6:24 p.m. UTC

Rocket: Delta II

Launch pad: Space Launch Complex 2W

Location: Vandenberg SFB, CA, USA

...

Latest news about this satellite

There are no fresh news available about this satellite. Check back as we update our databases every day.


Newsletter sign-up

Weekly statistics, charts and insights to help you stay on top of the space industry.